Regional Weather Roundup
Issued by NWS

Home | Current Version | Previous Version | Text Only | Print | Product List | Glossary Off
Versions: 1 2 3 4 5 6 7 8 9 10 11 12 13 14 15 16 17 18 19 20 21 22 23 24 25 26 27 28 29 30 31 32 33 34 35 36 37 38 39 40 41 42 43 44 45 46 47 48 49 50

000
ASUS45 KPSR 282200
RWRAZ

PRELIMINARY ARIZONA REGIONAL HOURLY WEATHER ROUNDUP
NATIONAL WEATHER SERVICE PHOENIX AZ
300 PM MST WED JAN 28 2015

NOTE: FAIR INDICATES FEW OR NO CLOUDS BELOW 12,000 FEET WITH NO
SIGNIFICANT WEATHER AND/OR OBSTRUCTIONS TO VISIBILITY.

AZZ001>003-036-282300-
NORTHWEST ARIZONA

CITY           SKY/WX    TMP DP  RH WIND       PRES   REMARKS
BULLHEAD CITY  MOSUNNY   68  48  49 MISG      30.13F
KINGMAN        MOSUNNY   61  43  51 N8        30.17F
$$

AZZ004>008-015-016-018-282300-
NORTH CENTRAL ARIZONA

CITY           SKY/WX    TMP DP  RH WIND       PRES   REMARKS
GRAND CANYON   MOSUNNY   53  25  33 VRB5      30.24S
PRESCOTT       MOSUNNY   59  29  31 CALM      30.18F
FLAGSTAFF      SUNNY     55  19  24 CALM      30.22F
PAYSON         MOSUNNY   61  28  29 SW5       30.19F
$$

AZZ009>014-017-282300-
NORTHEAST ARIZONA

CITY           SKY/WX    TMP DP  RH WIND       PRES   REMARKS
WINSLOW        SUNNY     58  34  40 VRB3      30.20F
SAINT JOHNS    SUNNY     61  31  32 NW8       30.18F
WINDOW ROCK    SUNNY     56  20  24 W7        30.22F
SHOW LOW       SUNNY     57  23  26 SW5       30.23F
$$

AZZ023-282300-
GREATER PHOENIX AREA

CITY           SKY/WX    TMP DP  RH WIND       PRES   REMARKS
PHOENIX        PTSUNNY   74  48  39 NW7       30.05F
GLENDALE       PTSUNNY   73  48  40 CALM      30.07F
LUKE AFB       NOT AVBL
DEER VALLEY    MOSUNNY   73  44  35 S5        30.06F
SCOTTSDALE     MOSUNNY   73  47  39 S3        30.07F
MESA-FALCON    PTSUNNY   72  46  40 NW7       30.06F
MESA-GATEWAY   PTSUNNY   72  48  43 NW6       30.08F
CHANDLER       PTSUNNY   73  48  40 VRB5      30.06F
$$

AZZ027-028-282300-
SOUTHWEST MARICOPA COUNTY AND PINAL COUNTY

CITY           SKY/WX    TMP DP  RH WIND       PRES   REMARKS
CASA GRANDE    MOSUNNY   70  48  46 NW3       30.07F
GILA BEND      MOCLDY    71  51  49 N7        30.07F
$$

AZZ503-504-507>509-282300-
SOUTHEAST ARIZONA

CITY           SKY/WX    TMP DP  RH WIND       PRES   REMARKS
TUCSON         SUNNY     76  43  30 N5        30.09F
DAVIS-MONTHAN  SUNNY     73  43  34 NW6       30.07F
RYAN FIELD       N/A     73  46  38 W5        30.08F
NOGALES        SUNNY     73  35  25 W8        30.11F
SIERRA VISTA   PTSUNNY   72  37  28 N3        30.14F
DOUGLAS        SUNNY     72  35  25 SW8       30.13S
SAFFORD        SUNNY     72  38  29 S3        30.08F
$$

AZZ020-021-025-026-031-282300-
SOUTHWEST ARIZONA

CITY           SKY/WX    TMP DP  RH WIND       PRES   REMARKS
YUMA           CLOUDY    73  52  47 VRB6      30.09S
$$

CAZ031-033-041-043-047-048-061-282300-
SOUTHERN CALIFORNIA

CITY           SKY/WX    TMP DP  RH WIND       PRES   REMARKS
DOWNTOWN L.A.  CLOUDY    74  42  31 CALM      30.06F
L.A. AIRPORT   CLOUDY    66  51  58 W9        30.07F
SAN DIEGO      CLOUDY    70  47  43 NW8       30.07R
BURBANK        CLOUDY    72  38  29 S5        30.07F
ONTARIO        CLOUDY    74  40  29 W3        30.06S
RIVERSIDE      CLOUDY    72  42  34 NE13      30.08S
PALM SPRINGS   CLOUDY    74  40  29 CALM      30.11F
EL CENTRO NAS  CLOUDY    72  49  44 N3        30.10F
IMPERIAL       CLOUDY    71  49  45 CALM      30.09F
BLYTHE         PTSUNNY   71  50  47 N9        30.10F
NEEDLES        MOSUNNY   71  48  43 N12       30.12F
$$

NVZ020-UTZ003-282300-
SOUTHERN NEVADA-UTAH

CITY           SKY/WX    TMP DP  RH WIND       PRES   REMARKS
LAS VEGAS      PTSUNNY   63  44  50 SE3       30.15F
SALT LAKE CITY PTSUNNY   49  36  61 N8        30.29S
$$

NMZ009-TXZ055-282300-
NEW MEXICO-WEST TEXAS

CITY           SKY/WX    TMP DP  RH WIND       PRES   REMARKS
ALBUQUERQUE    PTSUNNY   63  27  25 NW10      30.16F
EL PASO        MOSUNNY   72  37  28 VRB3      30.11F
$$


........................KEY........................
SKY/WX - SKY CONDITION/WEATHER
TMP    - TEMPERATURE IN FAHRENHEIT
DP     - DEW POINT IN FAHRENHEIT
RH     - RELATIVE HUMIDITY IN PERCENT
WIND   - DIRECTION AND SPEED IN MILES PER HOUR (MPH)
VRB    - VARIABLE WIND DIRECTION
PRES   - MEAN SEA LEVEL PRESSURE IN INCHES OF MERCURY
         F - FALLING PRESSURE   R - RISING PRESSURE
         S - STEADY PRESSURE
VSB    - VISIBILITY IN MILES
HX     - HEAT INDEX IN FAHRENHEIT
WCI    - WIND CHILL INDEX IN FAHRENHEIT
TC     - TEMPERATURE IN CELSIUS WHICH IS ALSO KNOWN AS
         TEMPERATURE IN CENTIGRADE
AFB    - AIR FORCE BASE
         LUKE AFB IS LUKE AIR FORCE BASE
         DAVIS-MONTHAN IS DAVIS-MONTHAN AIR FORCE BASE
NAS    - NAVAL AIR STATION
         EL CENTRO NAS IS EL CENTRO NAVAL AIR STATION
N/A    - NOT AVAILABLE



USA.gov is the U.S. government's official web portal to all federal, state and local government web resources and services.